Location: Arroyo de Valdeoliva
(40.1604°N, 4.9878°W)
Time: 09:45:02
(UTC+00:00)

SPOT 1/Viking Rocket - Pass Details

Date: 08 March 2026
Orbit: 773 x 789 km, 98.2° (Epoch: 19 April)

Event Time Altitude Azimuth Distance (km) Brightness Sun altitude
Rises 18:50:30 0° 181° (S) 3,240 6.8 -6.8°
Reaches altitude 10° 18:52:53 10° 187° (S) 2,319 6.1 -7.2°
Maximum altitude 18:57:48 47° 261° (W) 1,029 4.8 -8.2°
Drops below altitude 10° 19:02:47 10° 335° (NNW) 2,346 6.4 -9.1°
Sets 19:05:12 0° 341° (NNW) 3,281 7.1 -9.6°
